Tucson Davis Monthan, AZ

6:28 AM MST on December 14, 2019 (GMT -0700)
Davis-Monthan Air Force Base

Weather History for KDMA - July, 2019

Change the Weather History Date:

Thursday, July 18, 2019

  Actual Average Record
Temperature  
Mean Temperature 90 °F -  
Max Temperature 100 °F 98 °F 109 °F (1989)
Min Temperature 79 °F 73 °F 68 °F (1984)
Cooling Degree Days 24    
Growing Degree Days 40 (Base 50)    
Moisture  
Dew Point 58 °F    
Average Humidity 35    
Maximum Humidity 55    
Minimum Humidity 22    
Precipitation  
Precipitation 0.00 in - - ()
Sea Level Pressure  
Sea Level Pressure 29.88 in    
Wind  
Wind Speed 8 mph (WNW)    
Max Wind Speed 17 mph    
Max Gust Speed 24 mph    
Visibility 10 miles    
Events      
Averages and records for this station are not official NWS values.
T = Trace of Precipitation, MM = Missing Value Source: NWS Daily Summary

Daily Weather History Graph

Daily Weather History Graph

Search for Another Location

Airport or City:

Astronomy

Jul. 18, 2019 Rise Set
Actual Time 5:29 AM MST 7:29 PM MST
Civil Twilight 5:01 AM MST 7:57 PM MST
Nautical Twilight 4:28 AM MST 8:30 PM MST
Astronomical Twilight 3:52 AM MST 9:06 PM MST
Moon 9:01 PM MST (7/18) 6:59 AM MST (7/18)
Length of Visible Light 14h 55m
Length of Day
14h 00m
Waning Gibbous, 97% of the Moon is Illuminated
Jul 18
Waning Gibbous
Jul 24
Last Quarter
Jul 31
New
Aug 7
First Quarter
Aug 15
Full

Hourly Weather History & Observations

Time (MST) Temp. Heat Index Dew Point Humidity Pressure Visibility Wind Dir Wind Speed Gust Speed Precip Events Conditions
12:56 AM 82.6 °F 82.5 °F 58.5 °F 44% 29.86 in 10.0 mi SE 6.9 mph - N/A   Clear
1:56 AM 81.3 °F 81.7 °F 59.2 °F 47% 29.86 in 10.0 mi ESE 6.9 mph - N/A   Clear
2:56 AM 79.9 °F - 60.6 °F 52% 29.86 in 10.0 mi SE 5.8 mph - N/A   Clear
3:56 AM 79.3 °F - 61.7 °F 55% 29.86 in 10.0 mi ESE 4.6 mph - N/A   Clear
4:56 AM 79.7 °F - 59.4 °F 50% 29.86 in 10.0 mi ESE 6.9 mph - N/A   Partly Cloudy
5:56 AM 79.7 °F - 59.4 °F 50% 29.88 in 10.0 mi East 5.8 mph - N/A   Clear
6:56 AM 81.7 °F 82.3 °F 60.6 °F 49% 29.89 in 10.0 mi SE 4.6 mph - N/A   Clear
7:58 AM 82.8 °F 83.4 °F 61.5 °F 49% 30.04 in 10.0 mi East 3.5 mph - N/A   Scattered Clouds
8:58 AM 86.4 °F 86.8 °F 61.9 °F 44% 30.03 in 10.0 mi Calm Calm - N/A   Clear
9:56 AM 90.3 °F 89.9 °F 59.7 °F 36% 29.88 in 10.0 mi West 9.2 mph - N/A   Clear
10:56 AM 91.6 °F 91.0 °F 59.2 °F 34% 29.86 in 10.0 mi West 9.2 mph - N/A   Clear
11:58 AM 94.3 °F 93.7 °F 59.0 °F 31% 29.98 in 10.0 mi WNW 9.2 mph 16.1 mph N/A   Partly Cloudy
12:09 PM 95.0 °F 94.4 °F 59.0 °F 30% 29.97 in 10.0 mi North 15.0 mph 18.4 mph N/A   Partly Cloudy
12:58 PM 97.3 °F 96.6 °F 57.7 °F 27% 29.96 in 10.0 mi North 15.0 mph 17.3 mph N/A   Scattered Clouds
1:58 PM 98.6 °F 98.0 °F 57.7 °F 26% 29.93 in 10.0 mi NW 10.4 mph - N/A   Clear
2:25 PM 100.4 °F 99.7 °F 57.2 °F 24% 29.92 in 10.0 mi WNW 13.8 mph - N/A   Clear
2:58 PM 99.9 °F 99.0 °F 56.5 °F 24% 29.90 in 10.0 mi WNW 12.7 mph 19.6 mph N/A   Partly Cloudy
3:58 PM 100.4 °F 98.8 °F 54.5 °F 22% 29.87 in 10.0 mi NNW 17.3 mph 24.2 mph N/A   Clear
4:21 PM 100.4 °F 98.8 °F 55.4 °F 22% 29.87 in 10.0 mi NW 13.8 mph 23.0 mph N/A   Clear
4:58 PM 98.8 °F 96.6 °F 53.2 °F 22% 29.87 in 10.0 mi NW 11.5 mph 20.7 mph N/A   Clear
5:16 PM 98.6 °F 96.4 °F 53.6 °F 22% 29.87 in 10.0 mi WNW 13.8 mph - N/A   Clear
5:58 PM 97.0 °F 95.7 °F 56.3 °F 26% 29.87 in 10.0 mi WNW 16.1 mph 23.0 mph N/A   Mostly Cloudy
6:58 PM 93.7 °F 92.3 °F 56.7 °F 29% 29.74 in 10.0 mi West 11.5 mph - N/A   Overcast
7:58 PM 92.5 °F 91.3 °F 57.4 °F 31% 29.75 in 10.0 mi West 8.1 mph - N/A   Mostly Cloudy
8:58 PM 91.4 °F 91.0 °F 59.9 °F 35% 29.78 in 10.0 mi South 8.1 mph - N/A   Overcast
9:58 PM 88.7 °F 88.3 °F 59.7 °F 38% 29.94 in 10.0 mi South 8.1 mph - N/A   Scattered Clouds
10:58 PM 87.6 °F 86.7 °F 58.1 °F 37% 29.79 in 10.0 mi SE 5.8 mph - N/A   Mostly Cloudy
11:58 PM 87.4 °F 86.5 °F 57.9 °F 37% 29.79 in 10.0 mi SSE 3.5 mph - N/A   Mostly Cloudy